• In Belarus
  • List of Countries
  • For 7 days
  • Water Temperature
  • Weather Map
  • Weather Widgets
  • user-avatar
    Login

    Hourly Weather Lubango

    Today, 19 August, Monday

    Time Temperature Precipitation Wind Pressure Humidity
    00:00 +14°C° 0 mm 2 mps 609 mmHg 44%
    01:00 +14°C° 0 mm 2 mps 609 mmHg 42%
    02:00 +14°C° 0 mm 2 mps 608 mmHg 40%
    03:00 +14°C° 0 mm 2 mps 608 mmHg 39%
    04:00 +13°C° 0 mm 2 mps 607 mmHg 37%
    05:00 +13°C° 0 mm 3 mps 608 mmHg 35%
    06:00 +13°C° 0 mm 3 mps 608 mmHg 33%
    07:00 +13°C° 0 mm 3 mps 609 mmHg 31%
    08:00 +17°C° 0 mm 4 mps 610 mmHg 26%
    09:00 +21°C° 0 mm 5 mps 611 mmHg 20%
    10:00 +25°C° 0 mm 5 mps 612 mmHg 15%
    11:00 +26°C° 0 mm 5 mps 612 mmHg 14%
    12:00 +28°C° 0 mm 4 mps 612 mmHg 12%
    13:00 +29°C° 0 mm 3 mps 612 mmHg 11%
    14:00 +29°C° 0 mm 3 mps 611 mmHg 11%
    15:00 +29°C° 0 mm 2 mps 611 mmHg 10%
    16:00 +29°C° 0 mm 2 mps 611 mmHg 10%
    17:00 +25°C° 0 mm 2 mps 610 mmHg 15%
    18:00 +21°C° 0 mm 1 mps 609 mmHg 20%
    19:00 +18°C° 0 mm 1 mps 608 mmHg 25%
    20:00 +16°C° 0 mm 1 mps 608 mmHg 27%
    21:00 +16°C° 0 mm 2 mps 609 mmHg 29%
    22:00 +16°C° 0 mm 2 mps 609 mmHg 31%
    23:00 +15°C° 0 mm 2 mps 609 mmHg 31%

    Tomorrow, 20 August, Tuesday

    Time Temperature Precipitation Wind Pressure Humidity
    00:00 +15°C° 0 mm 2 mps 608 mmHg 31%
    01:00 +15°C° 0 mm 2 mps 608 mmHg 31%
    02:00 +14°C° 0 mm 2 mps 608 mmHg 29%
    03:00 +13°C° 0 mm 3 mps 608 mmHg 27%
    04:00 +12°C° 0 mm 3 mps 607 mmHg 25%
    05:00 +13°C° 0 mm 4 mps 608 mmHg 23%
    06:00 +13°C° 0 mm 4 mps 608 mmHg 21%
    07:00 +13°C° 0 mm 4 mps 609 mmHg 18%
    08:00 +16°C° 0 mm 5 mps 610 mmHg 15%
    09:00 +20°C° 0 mm 5 mps 611 mmHg 13%
    10:00 +23°C° 0 mm 6 mps 612 mmHg 10%
    11:00 +26°C° 0 mm 5 mps 612 mmHg 9%
    12:00 +28°C° 0 mm 4 mps 612 mmHg 9%
    13:00 +29°C° 0 mm 3 mps 612 mmHg 8%
    14:00 +29°C° 0 mm 3 mps 612 mmHg 8%
    15:00 +29°C° 0 mm 2 mps 611 mmHg 8%
    16:00 +29°C° 0 mm 2 mps 611 mmHg 9%
    17:00 +25°C° 0 mm 2 mps 610 mmHg 14%
    18:00 +20°C° 0 mm 2 mps 609 mmHg 20%
    19:00 +16°C° 0 mm 1 mps 608 mmHg 25%
    20:00 +16°C° 0 mm 1 mps 608 mmHg 27%
    21:00 +15°C° 0 mm 1 mps 609 mmHg 28%
    22:00 +15°C° 0 mm 1 mps 609 mmHg 30%
    23:00 +15°C° 0 mm 2 mps 609 mmHg 29%

    Day after tomorrow, 21 August, Wednesday

    Time Temperature Precipitation Wind Pressure Humidity
    00:00 +15°C° 0 mm 2 mps 609 mmHg 28%
    01:00 +15°C° 0 mm 2 mps 609 mmHg 28%
    02:00 +13°C° 0 mm 3 mps 608 mmHg 26%
    03:00 +13°C° 0 mm 3 mps 608 mmHg 24%
    04:00 +12°C° 0 mm 3 mps 608 mmHg 23%
    05:00 +12°C° 0 mm 3 mps 608 mmHg 22%
    06:00 +13°C° 0 mm 3 mps 609 mmHg 21%
    07:00 +13°C° 0 mm 4 mps 609 mmHg 21%
    08:00 +17°C° 0 mm 4 mps 610 mmHg 18%
    09:00 +21°C° 0 mm 5 mps 612 mmHg 15%
    10:00 +24°C° 0 mm 6 mps 613 mmHg 12%
    11:00 +27°C° 0 mm 5 mps 613 mmHg 11%
    12:00 +28°C° 0 mm 4 mps 613 mmHg 9%
    13:00 +29°C° 0 mm 3 mps 612 mmHg 8%
    14:00 +29°C° 0 mm 3 mps 612 mmHg 9%
    15:00 +29°C° 0 mm 3 mps 612 mmHg 9%
    16:00 +29°C° 0 mm 3 mps 611 mmHg 9%
    17:00 +25°C° 0 mm 2 mps 610 mmHg 17%
    18:00 +20°C° 0 mm 2 mps 609 mmHg 24%
    19:00 +16°C° 0 mm 1 mps 608 mmHg 31%
    20:00 +16°C° 0 mm 1 mps 609 mmHg 32%
    21:00 +15°C° 0 mm 1 mps 609 mmHg 34%
    22:00 +15°C° 0 mm 2 mps 609 mmHg 35%
    23:00 +15°C° 0 mm 2 mps 609 mmHg 35%

    22 August, Thursday

    Time Temperature Precipitation Wind Pressure Humidity
    00:00 +15°C° 0 mm 2 mps 609 mmHg 34%
    01:00 +14°C° 0 mm 3 mps 609 mmHg 34%
    02:00 +13°C° 0 mm 3 mps 609 mmHg 32%
    03:00 +13°C° 0 mm 3 mps 609 mmHg 31%
    04:00 +12°C° 0 mm 4 mps 608 mmHg 29%
    05:00 +13°C° 0 mm 4 mps 609 mmHg 28%
    06:00 +13°C° 0 mm 4 mps 609 mmHg 27%
    07:00 +13°C° 0 mm 4 mps 610 mmHg 26%
    08:00 +17°C° 0 mm 4 mps 611 mmHg 22%
    09:00 +20°C° 0 mm 5 mps 612 mmHg 19%
    10:00 +23°C° 0 mm 5 mps 613 mmHg 15%
    11:00 +26°C° 0 mm 4 mps 613 mmHg 13%
    12:00 +27°C° 0 mm 4 mps 613 mmHg 12%
    13:00 +29°C° 0 mm 3 mps 613 mmHg 10%
    14:00 +28°C° 0 mm 3 mps 612 mmHg 11%
    15:00 +28°C° 0 mm 3 mps 612 mmHg 11%
    16:00 +28°C° 0 mm 3 mps 612 mmHg 11%
    17:00 +24°C° 0 mm 2 mps 611 mmHg 20%
    18:00 +20°C° 0 mm 2 mps 610 mmHg 29%
    19:00 +16°C° 0 mm 2 mps 609 mmHg 38%
    20:00 +15°C° 0 mm 2 mps 609 mmHg 40%
    21:00 +15°C° 0 mm 2 mps 609 mmHg 43%
    22:00 +15°C° 0 mm 2 mps 609 mmHg 45%
    23:00 +13°C° 0 mm 3 mps 609 mmHg 43%

    23 August, Friday

    Time Temperature Precipitation Wind Pressure Humidity
    00:00 +13°C° 0 mm 3 mps 609 mmHg 41%
    01:00 +13°C° 0 mm 3 mps 609 mmHg 39%
    02:00 +13°C° 0 mm 4 mps 609 mmHg 38%
    03:00 +12°C° 0 mm 4 mps 609 mmHg 38%
    04:00 +12°C° 0 mm 4 mps 608 mmHg 37%
    05:00 +12°C° 0 mm 4 mps 609 mmHg 37%
    06:00 +12°C° 0 mm 4 mps 609 mmHg 37%
    07:00 +12°C° 0 mm 4 mps 610 mmHg 36%
    08:00 +15°C° 0 mm 4 mps 611 mmHg 31%
    09:00 +20°C° 0 mm 5 mps 612 mmHg 26%
    10:00 +23°C° 0 mm 5 mps 613 mmHg 21%
    11:00 +25°C° 0 mm 4 mps 613 mmHg 18%
    12:00 +27°C° 0 mm 3 mps 613 mmHg 16%
    13:00 +29°C° 0 mm 2 mps 613 mmHg 13%
    14:00 +28°C° 0 mm 2 mps 612 mmHg 13%
    15:00 +28°C° 0 mm 2 mps 612 mmHg 13%
    16:00 +28°C° 0 mm 3 mps 611 mmHg 12%
    17:00 +24°C° 0 mm 2 mps 611 mmHg 20%
    18:00 +20°C° 0 mm 2 mps 610 mmHg 28%
    19:00 +16°C° 0 mm 1 mps 609 mmHg 36%
    20:00 +15°C° 0 mm 1 mps 609 mmHg 38%
    21:00 +15°C° 0 mm 1 mps 609 mmHg 40%
    22:00 +14°C° 0 mm 2 mps 609 mmHg 42%
    23:00 +14°C° 0 mm 2 mps 609 mmHg 40%

    24 August, Saturday

    Time Temperature Precipitation Wind Pressure Humidity
    00:00 +14°C° 0 mm 2 mps 609 mmHg 38%
    01:00 +13°C° 0 mm 2 mps 609 mmHg 36%
    02:00 +12°C° 0 mm 3 mps 609 mmHg 33%
    03:00 +12°C° 0 mm 3 mps 609 mmHg 30%
    04:00 +12°C° 0 mm 3 mps 609 mmHg 27%
    05:00 +12°C° 0 mm 3 mps 609 mmHg 26%
    06:00 +12°C° 0 mm 3 mps 610 mmHg 25%
    07:00 +12°C° 0 mm 3 mps 610 mmHg 23%
    08:00 +17°C° 0 mm 3 mps 611 mmHg 20%
    09:00 +20°C° 0 mm 4 mps 613 mmHg 16%
    10:00 +23°C° 0 mm 4 mps 614 mmHg 13%
    11:00 +26°C° 0 mm 4 mps 614 mmHg 12%
    12:00 +27°C° 0 mm 3 mps 613 mmHg 10%
    13:00 +28°C° 0 mm 3 mps 613 mmHg 9%
    14:00 +28°C° 0 mm 3 mps 612 mmHg 9%
    15:00 +28°C° 0 mm 3 mps 612 mmHg 9%
    16:00 +28°C° 0 mm 3 mps 611 mmHg 9%
    17:00 +24°C° 0 mm 3 mps 610 mmHg 19%
    18:00 +19°C° 0 mm 2 mps 609 mmHg 29%
    19:00 +15°C° 0 mm 1 mps 608 mmHg 39%
    20:00 +14°C° 0 mm 2 mps 609 mmHg 41%
    21:00 +14°C° 0 mm 2 mps 609 mmHg 44%
    22:00 +14°C° 0 mm 2 mps 609 mmHg 46%
    23:00 +13°C° 0 mm 2 mps 609 mmHg 41%
    Show more